Klamath Falls, OR

5:16 PM PDT on August 16, 2017 (GMT -0700)
Klamath Falls International

Weather History for KLMT - August, 2014

Change the Weather History Date:

Saturday, August 2, 2014

  Actual Average Record
Temperature  
Mean Temperature 73 °F 67 °F  
Max Temperature 91 °F 86 °F 99 °F (2017)
Min Temperature 55 °F 49 °F 34 °F (2013)
Degree Days  
Heating Degree Days 0 1  
Month to date heating degree days 0 2  
Since 1 June heating degree days 185 269  
Since 1 July heating degree days 10 52  
Cooling Degree Days 8 3  
Month to date cooling degree days 18 6  
Year to date cooling degree days 246 100  
Since 1 June cooling degree days 246 99  
Growing Degree Days 22 (Base 50)    
Moisture  
Dew Point 47 °F    
Average Humidity 46    
Maximum Humidity 83    
Minimum Humidity 16    
Precipitation  
Precipitation 0.00 in 0.01 in 0.10 in (2003)
Month to date precipitation 0.00 0.02  
Year to date precipitation 6.59 9.33  
Sea Level Pressure  
Sea Level Pressure 29.96 in    
Wind  
Wind Speed 5 mph (West)    
Max Wind Speed 18 mph    
Max Gust Speed 23 mph    
Visibility 6 miles    
Events      
T = Trace of Precipitation, MM = Missing Value Source: NWS Daily Summary

Daily Weather History Graph

Daily Weather History Graph

Search for Another Location

Airport or City:

Trip Planner

Search our weather history database for the weather conditions in past years. The results will help you decide how hot, cold, wet, or windy it might be!

Date:

Astronomy

Aug. 02, 2014 Rise Set
Actual Time 6:01 AM PDT 8:24 PM PDT
Civil Twilight 5:29 AM PDT 8:56 PM PDT
Nautical Twilight 4:50 AM PDT 9:34 PM PDT
Astronomical Twilight 4:06 AM PDT 10:18 PM PDT
Moon 12:35 PM PDT (8/2) 11:38 PM PDT (8/2)
Length of Visible Light 15h 26m
Length of Day
14h 23m
Waxing Crescent, 38% of the Moon is Illuminated
Aug 2
Waxing Crescent
Aug 3
First Quarter
Aug 10
Full
Aug 17
Last Quarter
Aug 25
New

Hourly Weather History & Observations

Time (PDT) Temp. Dew Point Humidity Pressure Visibility Wind Dir Wind Speed Gust Speed Precip Events Conditions
1:53 AM 61.0 °F 51.1 °F 70% 29.92 in 10.0 mi South 5.8 mph - N/A   Smoke
2:53 AM 57.0 °F 50.0 °F 77% 29.93 in 10.0 mi ESE 3.5 mph - N/A   Smoke
3:53 AM 57.9 °F 50.0 °F 75% 29.92 in 10.0 mi NE 5.8 mph - N/A   Smoke
4:53 AM 57.0 °F 51.1 °F 81% 29.94 in 10.0 mi South 4.6 mph - N/A   Smoke
5:53 AM 55.0 °F 50.0 °F 83% 29.96 in 10.0 mi Calm Calm - N/A   Smoke
6:53 AM 57.9 °F 51.1 °F 78% 29.97 in 10.0 mi Calm Calm - N/A   Smoke
7:53 AM 64.0 °F 51.1 °F 63% 29.97 in 10.0 mi Calm Calm - N/A   Smoke
8:53 AM 68.0 °F 52.0 °F 56% 29.99 in 10.0 mi South 4.6 mph - N/A   Smoke
9:53 AM 72.0 °F 46.9 °F 41% 29.98 in 10.0 mi SE 3.5 mph - N/A   Smoke
10:53 AM 77.0 °F 48.9 °F 37% 29.97 in 3.0 mi Calm Calm - N/A   Smoke
11:12 AM 79.0 °F 50.0 °F 36% 30.10 in 3.0 mi Calm Calm - N/A   Haze
11:38 AM 80.1 °F 48.0 °F 32% 30.10 in 3.0 mi Calm Calm - N/A   Haze
11:46 AM 81.0 °F 48.0 °F 31% 30.09 in 2.0 mi Calm Calm - N/A   Haze
11:53 AM 82.9 °F 46.0 °F 27% 29.94 in 2.0 mi Calm Calm - N/A   Haze
12:53 PM 84.9 °F 37.9 °F 19% 29.94 in 2.0 mi Variable 3.5 mph - N/A   Haze
1:53 PM 88.0 °F 39.9 °F 18% 29.92 in 2.0 mi Calm Calm - N/A   Haze
2:53 PM 89.1 °F 37.9 °F 16% 29.91 in 2.0 mi Calm Calm - N/A   Haze
3:37 PM 89.1 °F 35.1 °F 15% 30.04 in 2.0 mi WNW 16.1 mph - N/A   Haze
3:53 PM 88.0 °F 35.1 °F 15% 29.90 in 2.0 mi WNW 15.0 mph - N/A   Haze
4:53 PM 86.0 °F 43.0 °F 22% 29.89 in 2.0 mi NNW 16.1 mph - N/A   Haze
5:53 PM 84.0 °F 45.0 °F 25% 29.89 in 2.0 mi NNW 13.8 mph - N/A   Haze
6:53 PM 82.0 °F 50.0 °F 33% 29.89 in 2.0 mi NW 13.8 mph - N/A   Haze
7:53 PM 75.9 °F 50.0 °F 40% 29.91 in 2.0 mi West 10.4 mph - N/A   Haze
8:53 PM 69.1 °F 50.0 °F 51% 29.94 in 2.0 mi Calm Calm - N/A   Haze
9:53 PM 66.9 °F 53.1 °F 61% 29.95 in 2.0 mi SW 3.5 mph - N/A   Haze
10:00 PM 66.0 °F 53.1 °F 63% 30.08 in 10.0 mi South 3.5 mph - N/A   Smoke
10:53 PM 71.1 °F 52.0 °F 51% 29.95 in 10.0 mi WNW 6.9 mph - N/A   Smoke
11:53 PM 63.0 °F 52.0 °F 67% 29.96 in 10.0 mi North 3.5 mph - N/A   Smoke